Hourly Data Report for April 22, 2021

TORONTO CITY
ONTARIO
Current Station Operator: ECCC - MSC

43°40'00.000" N
79°24'00.000" W
112.50 m
6158355
71508
XTO

Download Data

Hourly Data (April 2021)
Hourly Data Report for April 22, 2021
TIME
LST
Temp Definition
°C
Dew Point Definition
°C
Rel Hum Definition
%
Precip. Amount Definition
mm

Wind Dir Definition
10's deg

Wind Spd Definition
km/h
Visibility Definition
km
Stn Press Definition
kPa
Hmdx Definition


Wind Chill Definition


Weather Definition


00:00 -0.8 -7.7 59 0.0       99.97     LegendNANA
01:00 -0.7 -7.3 61 0.0       99.95     LegendNANA
02:00 -0.6 -7.2 61 0.0       99.91     LegendNANA
03:00 -0.4 -6.9 62 0.0       99.88     LegendNANA
04:00 -0.2 -5.8 66 0.0       99.87     LegendNANA
05:00 -0.3 -6.1 65 0.0       99.86     LegendNANA
06:00 -0.1 -5.6 67 0.0       99.90     LegendNANA
07:00 1.1 -4.8 65 0.0       99.96     LegendNANA
08:00 1.6 -5.8 58 0.0       99.98     LegendNANA
09:00 2.6 -4.3 60 0.0       100.00     LegendNANA
10:00 1.0 -3.1 74 0.0       100.05     LegendNANA
11:00 4.5 -7.1 43 0.0       99.99     LegendNANA
12:00 4.5 -5.7 47 0.0       99.99     LegendNANA
13:00 5.2 -4.5 50 0.0       99.97     LegendNANA
14:00 5.4 -3.6 52 0.0       99.97     LegendNANA
15:00 4.7 -4.7 51 0.0       99.97     LegendNANA
16:00 5.0 -5.2 48 0.0       99.96     LegendNANA
17:00 4.7 -5.8 47 0.0       100.01     LegendNANA
18:00 4.4 -6.9 44 0.0       100.04     LegendNANA
19:00 4.1 -7.7 42 0.0       100.06     LegendNANA
20:00 3.3 -7.6 45 0.0       100.12     LegendNANA
21:00 3.0 -7.4 46 0.0       100.17     LegendNANA
22:00 2.8 -7.2 48 0.0       100.18     LegendNANA
23:00 2.2 -7.2 50 0.0       100.20     LegendNANA

Notes on Data Quality.

Legend

  • E = Estimated
  • M = Missing
  • NA = Not Available*
  • [empty] = Indicates an unobserved value
Date modified: